| time (UTC) | temp C | wind direction | speed KPH | gust KPH | rain 1hr cm | rain 24hr cm | rain mn cm | humidity % | barometer mb |
| 20260507210640 | 18 | 188 | 1.6 | 16.1 | 0.00 | 0.00 | 0.00 | 43 | 1015.0 |
| 20260507210121 | 18 | 218 | 3.2 | 11.3 | 0.00 | 0.00 | 0.00 | 41 | 1015.0 |
| 20260507205558 | 18 | 253 | 6.4 | 12.9 | 0.00 | 0.00 | 0.00 | 42 | 1015.2 |
| 20260507205058 | 18 | 166 | 1.6 | 19.3 | 0.00 | 0.00 | 0.00 | 46 | 1015.3 |
| 20260507204604 | 18 | 294 | 4.8 | 19.3 | 0.00 | 0.00 | 0.00 | 42 | 1015.2 |
| 20260507204059 | 18 | 327 | 4.8 | 19.3 | 0.00 | 0.00 | 0.00 | 43 | 1015.3 |
| 20260507203556 | 18 | 232 | 6.4 | 16.1 | 0.00 | 0.00 | 0.00 | 43 | 1015.5 |
| 20260507203058 | 19 | 294 | 4.8 | 12.9 | 0.00 | 0.00 | 0.00 | 46 | 1015.5 |
| 20260507202554 | 19 | 254 | 3.2 | 12.9 | 0.00 | 0.00 | 0.00 | 43 | 1015.6 |
| 20260507202056 | 18 | 262 | 3.2 | 20.9 | 0.00 | 0.00 | 0.00 | 44 | 1015.5 |
| 20260507201553 | 18 | 155 | 1.6 | 20.9 | 0.00 | 0.00 | 0.00 | 46 | 1015.7 |
| 20260507201053 | 18 | 190 | 4.8 | 11.3 | 0.00 | 0.00 | 0.00 | 44 | 1015.8 |
| 20260507200652 | 18 | 303 | 3.2 | 11.3 | 0.00 | 0.00 | 0.00 | 46 | 1015.9 |
| 20260507200105 | 18 | 37 | 1.6 | 17.7 | 0.00 | 0.00 | 0.00 | 42 | 1016.1 |
| 20260507195556 | 18 | 223 | 3.2 | 19.3 | 0.00 | 0.00 | 0.00 | 44 | 1016.2 |
| 20260507195053 | 18 | 52 | 4.8 | 19.3 | 0.00 | 0.00 | 0.00 | 41 | 1016.3 |
| 20260507194553 | 18 | 160 | 6.4 | 17.7 | 0.00 | 0.00 | 0.00 | 41 | 1016.1 |
| 20260507194055 | 18 | 172 | 9.7 | 19.3 | 0.00 | 0.00 | 0.00 | 43 | 1016.2 |
| 20260507193552 | 18 | 146 | 8.0 | 24.1 | 0.00 | 0.00 | 0.00 | 42 | 1016.2 |
| 20260507193110 | 18 | 355 | 3.2 | 24.1 | 0.00 | 0.00 | 0.00 | 41 | 1016.2 |
| 20260507192552 | 18 | 279 | 4.8 | 16.1 | 0.00 | 0.00 | 0.00 | 38 | 1016.2 |
| 20260507192053 | 18 | 207 | 1.6 | 16.1 | 0.00 | 0.00 | 0.00 | 47 | 1016.3 |
| 20260507191557 | 18 | 355 | 3.2 | 12.9 | 0.00 | 0.00 | 0.00 | 43 | 1016.4 |
| 20260507191050 | 17 | 272 | 4.8 | 17.7 | 0.00 | 0.00 | 0.00 | 42 | 1016.4 |
| 20260507190649 | 17 | 300 | 8.0 | 17.7 | 0.00 | 0.00 | 0.00 | 41 | 1016.5 |
| 20260507190054 | 18 | 341 | 6.4 | 22.5 | 0.00 | 0.00 | 0.00 | 42 | 1016.5 |
| 20260507185552 | 17 | 256 | 6.4 | 20.9 | 0.00 | 0.00 | 0.00 | 45 | 1016.5 |
| 20260507185052 | 17 | 207 | 4.8 | 16.1 | 0.00 | 0.00 | 0.00 | 40 | 1016.6 |
| 20260507184551 | 17 | 176 | 3.2 | 11.3 | 0.00 | 0.00 | 0.00 | 46 | 1016.7 |
| 20260507184047 | 17 | 290 | 3.2 | 16.1 | 0.00 | 0.00 | 0.00 | 43 | 1016.8 |
| 20260507183546 | 17 | 288 | 8.0 | 16.1 | 0.00 | 0.00 | 0.00 | 48 | 1016.9 |
| 20260507183057 | 17 | 288 | 4.8 | 16.1 | 0.00 | 0.00 | 0.00 | 47 | 1016.9 |
| 20260507182545 | 17 | 140 | 4.8 | 12.9 | 0.00 | 0.00 | 0.00 | 41 | 1016.8 |
| 20260507182045 | 17 | 192 | 0.0 | 12.9 | 0.00 | 0.00 | 0.00 | 49 | 1016.9 |
| 20260507181544 | 16 | 157 | 1.6 | 16.1 | 0.00 | 0.00 | 0.00 | 38 | 1016.9 |
| 20260507181043 | 17 | 173 | 8.0 | 19.3 | 0.00 | 0.00 | 0.00 | 43 | 1016.9 |
| 20260507180643 | 17 | 248 | 3.2 | 19.3 | 0.00 | 0.00 | 0.00 | 42 | 1016.9 |
| 20260507180050 | 16 | 329 | 1.6 | 8.0 | 0.00 | 0.00 | 0.00 | 38 | 1017.0 |
| 20260507175555 | 17 | 355 | 1.6 | 11.3 | 0.00 | 0.00 | 0.00 | 48 | 1017.2 |
| 20260507175048 | 16 | 255 | 4.8 | 12.9 | 0.00 | 0.00 | 0.00 | 48 | 1017.4 |
| 20260507174548 | 16 | 338 | 4.8 | 12.9 | 0.00 | 0.00 | 0.00 | 44 | 1017.4 |
| 20260507174046 | 17 | 304 | 3.2 | 14.5 | 0.00 | 0.00 | 0.00 | 43 | 1017.5 |
| 20260507173550 | 16 | 202 | 4.8 | 14.5 | 0.00 | 0.00 | 0.00 | 43 | 1017.6 |
| 20260507173112 | 16 | 209 | 1.6 | 12.9 | 0.00 | 0.00 | 0.00 | 48 | 1017.6 |
| 20260507172545 | 16 | 307 | 6.4 | 12.9 | 0.00 | 0.00 | 0.00 | 47 | 1017.7 |
| 20260507172044 | 16 | 316 | 1.6 | 16.1 | 0.00 | 0.00 | 0.00 | 46 | 1017.7 |
| 20260507171546 | 16 | 228 | 1.6 | 16.1 | 0.00 | 0.00 | 0.00 | 52 | 1017.8 |
| 20260507171041 | 16 | 178 | 3.2 | 11.3 | 0.00 | 0.00 | 0.00 | 44 | 1017.8 |
| 20260507170641 | 16 | 239 | 1.6 | 17.7 | 0.00 | 0.00 | 0.00 | 41 | 1017.9 |
| 20260507170050 | 16 | 284 | 8.0 | 19.3 | 0.00 | 0.00 | 0.00 | 45 | 1017.9 |
| 20260507165546 | 16 | 277 | 8.0 | 19.3 | 0.00 | 0.00 | 0.00 | 44 | 1018.1 |
| 20260507165045 | 16 | 292 | 3.2 | 14.5 | 0.00 | 0.00 | 0.00 | 44 | 1018.1 |
| 20260507164553 | 15 | 304 | 1.6 | 17.7 | 0.00 | 0.00 | 0.00 | 51 | 1018.3 |
| 20260507164043 | 16 | 313 | 4.8 | 17.7 | 0.00 | 0.00 | 0.00 | 46 | 1018.3 |
| 20260507163542 | 16 | 305 | 6.4 | 12.9 | 0.00 | 0.00 | 0.00 | 47 | 1018.4 |
| 20260507163041 | 16 | 250 | 0.0 | 11.3 | 0.00 | 0.00 | 0.00 | 49 | 1018.4 |
| 20260507162540 | 15 | 163 | 0.0 | 12.9 | 0.00 | 0.00 | 0.00 | 50 | 1018.4 |
| 20260507162039 | 15 | 360 | 4.8 | 12.9 | 0.00 | 0.00 | 0.00 | 54 | 1018.5 |
| 20260507161540 | 15 | 292 | 6.4 | 12.9 | 0.00 | 0.00 | 0.00 | 49 | 1018.6 |
| 20260507161038 | 15 | 181 | 6.4 | 12.9 | 0.00 | 0.00 | 0.00 | 46 | 1018.5 |
| 20260507160509 | 15 | 286 | 1.6 | 9.7 | 0.00 | 0.00 | 0.00 | 54 | 1018.5 |
| 20260507160012 | 15 | 319 | 6.4 | 16.1 | 0.00 | 0.00 | 0.00 | 48 | 1018.6 |
| 20260507155509 | 15 | 215 | 6.4 | 16.1 | 0.00 | 0.00 | 0.00 | 50 | 1018.5 |
| 20260507155006 | 15 | 171 | 3.2 | 12.9 | 0.00 | 0.00 | 0.00 | 53 | 1018.5 |
| 20260507154608 | 15 | 194 | 3.2 | 12.9 | 0.00 | 0.00 | 0.00 | 52 | 1018.5 |
| 20260507154003 | 15 | 215 | 0.0 | 6.4 | 0.00 | 0.00 | 0.00 | 55 | 1018.6 |
| 20260507153504 | 15 | 166 | 1.6 | 16.1 | 0.00 | 0.00 | 0.00 | 49 | 1018.7 |
| 20260507153101 | 15 | 279 | 6.4 | 16.1 | 0.00 | 0.00 | 0.00 | 51 | 1018.7 |
| 20260507152558 | 14 | 190 | 3.2 | 6.4 | 0.00 | 0.00 | 0.00 | 54 | 1018.7 |
| 20260507152057 | 15 | 315 | 0.0 | 12.9 | 0.00 | 0.00 | 0.00 | 53 | 1018.8 |
| 20260507151556 | 13 | 233 | 4.8 | 12.9 | 0.00 | 0.00 | 0.00 | 51 | 1018.9 |
| 20260507151056 | 13 | 146 | 3.2 | 9.7 | 0.00 | 0.00 | 0.00 | 50 | 1018.8 |
| 20260507150509 | 13 | 259 | 3.2 | 9.7 | 0.00 | 0.00 | 0.00 | 53 | 1018.9 |
| 20260507150010 | 13 | 222 | 1.6 | 12.9 | 0.00 | 0.00 | 0.00 | 53 | 1018.9 |
| 20260507145508 | 14 | 219 | 3.2 | 12.9 | 0.00 | 0.00 | 0.00 | 60 | 1018.9 |
| 20260507145007 | 13 | 130 | 4.8 | 9.7 | 0.00 | 0.00 | 0.00 | 61 | 1019.0 |
| 20260507144508 | 13 | 199 | 3.2 | 11.3 | 0.00 | 0.00 | 0.00 | 54 | 1019.0 |
| 20260507144002 | 13 | 229 | 1.6 | 11.3 | 0.00 | 0.00 | 0.00 | 60 | 1019.0 |
| 20260507143600 | 13 | 194 | 4.8 | 9.7 | 0.00 | 0.00 | 0.00 | 59 | 1018.9 |
| 20260507143110 | 13 | 261 | 3.2 | 8.0 | 0.00 | 0.00 | 0.00 | 61 | 1019.0 |
| 20260507142558 | 12 | 217 | 1.6 | 8.0 | 0.00 | 0.00 | 0.00 | 69 | 1019.0 |
| 20260507142057 | 12 | 178 | 1.6 | 8.0 | 0.00 | 0.00 | 0.00 | 73 | 1019.1 |
| 20260507141613 | 11 | 225 | 1.6 | 11.3 | 0.00 | 0.00 | 0.00 | 77 | 1019.1 |
| 20260507141054 | 10 | 215 | 3.2 | 11.3 | 0.00 | 0.00 | 0.00 | 87 | 1019.1 |
| 20260507140508 | 10 | 208 | 3.2 | 9.7 | 0.00 | 0.00 | 0.00 | 93 | 1019.1 |
| 20260507140006 | 8 | 164 | 1.6 | 9.7 | 0.00 | 0.00 | 0.00 | 96 | 1019.2 |
| 20260507135504 | 8 | 176 | 1.6 | 9.7 | 0.00 | 0.00 | 0.00 | 97 | 1019.2 |
| 20260507135001 | 8 | 168 | 3.2 | 8.0 | 0.00 | 0.00 | 0.00 | 97 | 1019.1 |
| 20260507134609 | 7 | 194 | 1.6 | 4.8 | 0.00 | 0.00 | 0.00 | 97 | 1019.2 |
| 20260507134057 | 7 | 173 | 1.6 | 4.8 | 0.00 | 0.00 | 0.00 | 97 | 1019.2 |
| 20260507133556 | 7 | 202 | 1.6 | 4.8 | 0.00 | 0.00 | 0.00 | 97 | 1019.3 |
| 20260507133055 | 7 | 168 | 1.6 | 4.8 | 0.00 | 0.00 | 0.00 | 97 | 1019.2 |
| 20260507132554 | 6 | 131 | 0.0 | 4.8 | 0.00 | 0.00 | 0.00 | 97 | 1019.1 |
| 20260507132052 | 6 | 146 | 0.0 | 3.2 | 0.00 | 0.00 | 0.00 | 96 | 1019.1 |
| 20260507131551 | 6 | 215 | 0.0 | 3.2 | 0.00 | 0.00 | 0.00 | 97 | 1019.2 |
| 20260507131050 | 5 | 218 | 0.0 | 3.2 | 0.00 | 0.00 | 0.00 | 96 | 1019.0 |
| 20260507130648 | 5 | 184 | 1.6 | 3.2 | 0.00 | 0.00 | 0.00 | 96 | 1019.2 |
| 20260507130054 | 5 | 90 | 0.0 | 1.6 | 0.00 | 0.00 | 0.00 | 96 | 1019.1 |
| 20260507125552 | 4 | 90 | 0.0 | 1.6 | 0.00 | 0.00 | 0.00 | 96 | 1019.2 |
| 20260507125053 | 4 | 90 | 0.0 | 1.6 | 0.00 | 0.00 | 0.00 | 96 | 1019.1 |
| 20260507124551 | 4 | 90 | 0.0 | 0.0 | 0.00 | 0.00 | 0.00 | 96 | 1019.1 |
| 20260507124048 | 3 | 90 | 0.0 | 0.0 | 0.00 | 0.00 | 0.00 | 96 | 1019.1 |
| 20260507123548 | 3 | 90 | 0.0 | 0.0 | 0.00 | 0.00 | 0.00 | 96 | 1019.0 |
| 20260507123050 | 3 | 90 | 0.0 | 0.0 | 0.00 | 0.00 | 0.00 | 96 | 1019.1 |
| 20260507122547 | 3 | 90 | 0.0 | 0.0 | 0.00 | 0.00 | 0.00 | 96 | 1019.2 |
| 20260507122047 | 3 | 90 | 0.0 | 0.0 | 0.00 | 0.00 | 0.00 | 96 | 1019.0 |
| 20260507121546 | 3 | 90 | 0.0 | 0.0 | 0.00 | 0.00 | 0.00 | 96 | 1019.1 |
| 20260507121046 | 3 | 90 | 0.0 | 0.0 | 0.00 | 0.00 | 0.00 | 96 | 1019.0 |
| 20260507120645 | 3 | 90 | 0.0 | 0.0 | 0.00 | 0.00 | 0.00 | 95 | 1019.0 |
| 20260507120052 | 2 | 90 | 0.0 | 0.0 | 0.00 | 0.00 | 0.00 | 96 | 1018.9 |
| 20260507115550 | 2 | 90 | 0.0 | 0.0 | 0.00 | 0.00 | 0.00 | 96 | 1018.7 |
| 20260507115051 | 2 | 90 | 0.0 | 0.0 | 0.00 | 0.00 | 0.00 | 95 | 1018.7 |
| 20260507114555 | 2 | 90 | 0.0 | 0.0 | 0.00 | 0.00 | 0.00 | 95 | 1018.8 |
| 20260507114048 | 2 | 90 | 0.0 | 0.0 | 0.00 | 0.00 | 0.00 | 95 | 1018.6 |
| 20260507113547 | 2 | 90 | 0.0 | 0.0 | 0.00 | 0.00 | 0.00 | 95 | 1018.6 |
| 20260507113049 | 2 | 90 | 0.0 | 0.0 | 0.00 | 0.00 | 0.00 | 95 | 1018.5 |
| 20260507112545 | 2 | 90 | 0.0 | 0.0 | 0.00 | 0.00 | 0.00 | 95 | 1018.4 |
| 20260507112044 | 1 | 90 | 0.0 | 0.0 | 0.00 | 0.00 | 0.00 | 95 | 1018.4 |
| 20260507111554 | 1 | 90 | 0.0 | 0.0 | 0.00 | 0.00 | 0.00 | 95 | 1018.4 |
| 20260507111041 | 1 | 90 | 0.0 | 0.0 | 0.00 | 0.00 | 0.00 | 95 | 1018.4 |
| 20260507110644 | 1 | 90 | 0.0 | 0.0 | 0.00 | 0.00 | 0.00 | 95 | 1018.3 |
| 20260507110041 | 1 | 90 | 0.0 | 1.6 | 0.00 | 0.00 | 0.00 | 95 | 1018.3 |
| 20260507105540 | 1 | 90 | 0.0 | 1.6 | 0.00 | 0.00 | 0.00 | 95 | 1018.2 |
| 20260507105040 | 1 | 90 | 0.0 | 0.0 | 0.00 | 0.00 | 0.00 | 95 | 1018.1 |
| 20260507104540 | 1 | 90 | 0.0 | 0.0 | 0.00 | 0.00 | 0.00 | 95 | 1018.0 |
| 20260507104040 | 1 | 90 | 0.0 | 0.0 | 0.00 | 0.00 | 0.00 | 95 | 1017.9 |
| 20260507103539 | 1 | 90 | 0.0 | 0.0 | 0.00 | 0.00 | 0.00 | 95 | 1018.1 |
| 20260507103039 | 1 | 90 | 0.0 | 0.0 | 0.00 | 0.00 | 0.00 | 95 | 1018.2 |
| 20260507102539 | 1 | 90 | 0.0 | 0.0 | 0.00 | 0.00 | 0.00 | 95 | 1018.1 |
| 20260507102041 | 1 | 90 | 0.0 | 0.0 | 0.00 | 0.00 | 0.00 | 95 | 1018.1 |
| 20260507101543 | 1 | 90 | 0.0 | 0.0 | 0.00 | 0.00 | 0.00 | 95 | 1018.0 |
| 20260507101038 | 1 | 90 | 0.0 | 0.0 | 0.00 | 0.00 | 0.00 | 95 | 1017.8 |
| 20260507100639 | 1 | 90 | 0.0 | 0.0 | 0.00 | 0.00 | 0.00 | 95 | 1018.0 |
| 20260507100057 | 1 | 90 | 0.0 | 0.0 | 0.00 | 0.00 | 0.00 | 95 | 1018.2 |
| 20260507095557 | 1 | 90 | 0.0 | 0.0 | 0.00 | 0.00 | 0.00 | 95 | 1018.2 |
| 20260507095056 | 1 | 90 | 0.0 | 0.0 | 0.00 | 0.00 | 0.00 | 95 | 1018.0 |
| 20260507094556 | 1 | 90 | 0.0 | 0.0 | 0.00 | 0.00 | 0.00 | 95 | 1017.9 |
| 20260507094056 | 1 | 90 | 0.0 | 1.6 | 0.00 | 0.00 | 0.00 | 95 | 1017.7 |
| 20260507093554 | 1 | 90 | 0.0 | 1.6 | 0.00 | 0.00 | 0.00 | 95 | 1017.7 |
| 20260507093058 | 1 | 90 | 0.0 | 0.0 | 0.00 | 0.00 | 0.00 | 95 | 1017.9 |
| 20260507092554 | 1 | 90 | 0.0 | 0.0 | 0.00 | 0.00 | 0.00 | 95 | 1018.1 |
| 20260507092055 | 1 | 90 | 0.0 | 0.0 | 0.00 | 0.00 | 0.00 | 95 | 1018.1 |
| 20260507091555 | 1 | 90 | 0.0 | 1.6 | 0.00 | 0.00 | 0.00 | 95 | 1018.0 |
| 20260507091053 | 1 | 90 | 0.0 | 1.6 | 0.00 | 0.00 | 0.00 | 95 | 1018.1 |
| 20260507090653 | 1 | 71 | 0.0 | 1.6 | 0.00 | 0.00 | 0.00 | 95 | 1017.9 |
| 20260507085555 | 1 | 42 | 0.0 | 1.6 | 0.00 | 0.00 | 0.00 | 95 | 1018.2 |
| 20260507085053 | 1 | 36 | 0.0 | 1.6 | 0.00 | 0.00 | 0.00 | 95 | 1018.2 |
| 20260507084553 | 1 | 36 | 0.0 | 1.6 | 0.00 | 0.00 | 0.00 | 95 | 1018.2 |
| 20260507084053 | 2 | 36 | 0.0 | 1.6 | 0.00 | 0.00 | 0.00 | 95 | 1018.2 |
| 20260507083552 | 2 | 36 | 0.0 | 1.6 | 0.00 | 0.00 | 0.00 | 95 | 1018.3 |
| 20260507083052 | 2 | 360 | 0.0 | 0.0 | 0.00 | 0.00 | 0.00 | 95 | 1018.4 |
| 20260507082553 | 2 | 360 | 0.0 | 0.0 | 0.00 | 0.00 | 0.00 | 95 | 1018.4 |
| 20260507082050 | 2 | 360 | 0.0 | 0.0 | 0.00 | 0.00 | 0.00 | 95 | 1018.4 |
| 20260507081550 | 2 | 360 | 0.0 | 0.0 | 0.00 | 0.00 | 0.00 | 95 | 1018.5 |
| 20260507081050 | 2 | 360 | 0.0 | 0.0 | 0.00 | 0.00 | 0.00 | 95 | 1018.5 |
| 20260507080649 | 2 | 360 | 0.0 | 0.0 | 0.00 | 0.00 | 0.00 | 95 | 1018.5 |
| 20260507080049 | 2 | 360 | 0.0 | 0.0 | 0.00 | 0.00 | 0.00 | 95 | 1018.4 |
| 20260507075552 | 2 | 360 | 0.0 | 0.0 | 0.00 | 0.00 | 0.00 | 95 | 1018.5 |
| 20260507075049 | 2 | 360 | 0.0 | 0.0 | 0.00 | 0.00 | 0.00 | 95 | 1018.4 |
| 20260507074554 | 2 | 360 | 0.0 | 0.0 | 0.00 | 0.00 | 0.00 | 95 | 1018.4 |
| 20260507074048 | 2 | 360 | 0.0 | 0.0 | 0.00 | 0.00 | 0.00 | 95 | 1018.2 |
| 20260507073547 | 2 | 360 | 0.0 | 0.0 | 0.00 | 0.00 | 0.00 | 95 | 1018.3 |
| 20260507073046 | 2 | 360 | 0.0 | 0.0 | 0.00 | 0.00 | 0.00 | 95 | 1018.2 |
| 20260507072547 | 2 | 360 | 0.0 | 0.0 | 0.00 | 0.00 | 0.00 | 95 | 1018.3 |
| 20260507072045 | 2 | 360 | 0.0 | 0.0 | 0.00 | 0.00 | 0.00 | 95 | 1018.3 |
| 20260507071546 | 2 | 360 | 0.0 | 0.0 | 0.00 | 0.00 | 0.00 | 95 | 1018.3 |
| 20260507071047 | 2 | 360 | 0.0 | 0.0 | 0.00 | 0.00 | 0.00 | 95 | 1018.1 |
| 20260507070647 | 2 | 360 | 0.0 | 0.0 | 0.00 | 0.00 | 0.00 | 95 | 1018.2 |
| 20260507070050 | 2 | 360 | 0.0 | 0.0 | 0.00 | 0.00 | 0.00 | 95 | 1018.1 |
| 20260507065547 | 2 | 360 | 0.0 | 0.0 | 0.00 | 0.00 | 0.00 | 95 | 1018.0 |
| 20260507065046 | 2 | 360 | 0.0 | 0.0 | 0.00 | 0.00 | 0.00 | 95 | 1018.4 |
| 20260507064603 | 2 | 360 | 0.0 | 0.0 | 0.00 | 0.00 | 0.00 | 95 | 1018.3 |
| 20260507064045 | 2 | 360 | 0.0 | 0.0 | 0.00 | 0.00 | 0.00 | 95 | 1018.4 |
| 20260507063543 | 2 | 360 | 0.0 | 0.0 | 0.00 | 0.00 | 0.00 | 95 | 1018.4 |
| 20260507063047 | 2 | 360 | 0.0 | 0.0 | 0.00 | 0.00 | 0.00 | 95 | 1018.4 |
| 20260507062544 | 2 | 360 | 0.0 | 0.0 | 0.00 | 0.00 | 0.00 | 95 | 1018.4 |
| 20260507062042 | 2 | 360 | 0.0 | 1.6 | 0.00 | 0.00 | 0.00 | 95 | 1018.5 |
| 20260507061542 | 3 | 360 | 0.0 | 1.6 | 0.00 | 0.00 | 0.00 | 95 | 1018.4 |
| 20260507061041 | 3 | 360 | 0.0 | 0.0 | 0.00 | 0.00 | 0.00 | 95 | 1018.4 |
| 20260507060641 | 3 | 360 | 0.0 | 0.0 | 0.00 | 0.00 | 0.00 | 95 | 1018.4 |
| 20260507060049 | 3 | 360 | 0.0 | 0.0 | 0.00 | 0.00 | 0.00 | 95 | 1018.3 |
| 20260507055546 | 3 | 360 | 0.0 | 0.0 | 0.00 | 0.00 | 0.00 | 95 | 1018.2 |
| 20260507055046 | 3 | 360 | 0.0 | 0.0 | 0.00 | 0.00 | 0.00 | 95 | 1018.5 |
| 20260507054546 | 3 | 360 | 0.0 | 0.0 | 0.00 | 0.00 | 0.00 | 95 | 1018.3 |
| 20260507054045 | 3 | 360 | 0.0 | 0.0 | 0.00 | 0.00 | 0.00 | 95 | 1018.3 |
| 20260507053544 | 3 | 360 | 0.0 | 0.0 | 0.00 | 0.00 | 0.00 | 94 | 1018.3 |
| 20260507053044 | 3 | 360 | 0.0 | 0.0 | 0.00 | 0.00 | 0.00 | 94 | 1018.4 |
| 20260507052545 | 3 | 360 | 0.0 | 0.0 | 0.00 | 0.00 | 0.00 | 94 | 1018.2 |
| 20260507052041 | 3 | 360 | 0.0 | 0.0 | 0.00 | 0.00 | 0.00 | 94 | 1018.3 |
| 20260507051540 | 3 | 355 | 0.0 | 0.0 | 0.00 | 0.00 | 0.00 | 94 | 1018.2 |
| 20260507051040 | 3 | 355 | 0.0 | 0.0 | 0.00 | 0.00 | 0.00 | 94 | 1018.1 |
| 20260507050503 | 3 | 355 | 0.0 | 0.0 | 0.00 | 0.00 | 0.00 | 94 | 1018.1 |
| 20260507050007 | 3 | 355 | 0.0 | 0.0 | 0.00 | 0.05 | 0.00 | 94 | 1018.2 |
| 20260507045501 | 4 | 355 | 0.0 | 0.0 | 0.00 | 0.05 | 0.00 | 94 | 1018.2 |
| 20260507045001 | 4 | 355 | 0.0 | 0.0 | 0.00 | 0.05 | 0.00 | 94 | 1018.3 |
| 20260507044500 | 4 | 355 | 0.0 | 0.0 | 0.00 | 0.05 | 0.00 | 94 | 1018.3 |
| 20260507044100 | 4 | 355 | 0.0 | 0.0 | 0.00 | 0.05 | 0.00 | 94 | 1018.2 |
| 20260507043558 | 4 | 355 | 0.0 | 0.0 | 0.00 | 0.05 | 0.00 | 94 | 1018.2 |
| 20260507043102 | 4 | 355 | 0.0 | 0.0 | 0.00 | 0.05 | 0.00 | 94 | 1018.2 |
| 20260507042557 | 4 | 355 | 0.0 | 0.0 | 0.00 | 0.05 | 0.00 | 94 | 1018.1 |
| 20260507042056 | 5 | 355 | 0.0 | 0.0 | 0.00 | 0.05 | 0.00 | 94 | 1017.9 |
| 20260507041605 | 5 | 355 | 0.0 | 0.0 | 0.00 | 0.05 | 0.00 | 94 | 1018.1 |
| 20260507041055 | 5 | 355 | 0.0 | 0.0 | 0.00 | 0.05 | 0.00 | 94 | 1018.1 |
| 20260507040655 | 5 | 355 | 0.0 | 0.0 | 0.00 | 0.05 | 0.00 | 94 | 1018.1 |
| 20260507040059 | 5 | 355 | 0.0 | 0.0 | 0.00 | 0.05 | 0.00 | 94 | 1017.9 |
| 20260507035557 | 5 | 355 | 0.0 | 0.0 | 0.00 | 0.05 | 0.00 | 94 | 1018.0 |
| 20260507035056 | 5 | 355 | 0.0 | 0.0 | 0.00 | 0.05 | 0.00 | 94 | 1017.9 |
| 20260507034605 | 5 | 355 | 0.0 | 0.0 | 0.00 | 0.05 | 0.00 | 94 | 1017.9 |
| 20260507034055 | 5 | 355 | 0.0 | 0.0 | 0.00 | 0.05 | 0.00 | 93 | 1017.9 |
| 20260507033554 | 5 | 355 | 0.0 | 0.0 | 0.00 | 0.05 | 0.00 | 94 | 1017.9 |
| 20260507033055 | 5 | 355 | 0.0 | 0.0 | 0.00 | 0.05 | 0.00 | 93 | 1017.9 |
| 20260507032554 | 6 | 355 | 0.0 | 0.0 | 0.00 | 0.05 | 0.00 | 93 | 1017.9 |
| 20260507032053 | 6 | 355 | 0.0 | 0.0 | 0.00 | 0.05 | 0.00 | 93 | 1017.9 |
| 20260507031555 | 6 | 355 | 0.0 | 0.0 | 0.00 | 0.05 | 0.00 | 93 | 1017.9 |
| 20260507031057 | 6 | 355 | 0.0 | 0.0 | 0.00 | 0.05 | 0.00 | 93 | 1017.9 |
| 20260507030654 | 6 | 355 | 0.0 | 1.6 | 0.00 | 0.05 | 0.00 | 93 | 1017.9 |
| 20260507030057 | 6 | 355 | 0.0 | 0.0 | 0.00 | 0.05 | 0.00 | 92 | 1018.0 |
| 20260507025550 | 6 | 355 | 0.0 | 0.0 | 0.00 | 0.15 | 0.00 | 92 | 1017.9 |
| 20260507025049 | 6 | 355 | 0.0 | 0.0 | 0.00 | 0.15 | 0.00 | 92 | 1017.9 |
| 20260507024549 | 6 | 355 | 0.0 | 1.6 | 0.00 | 0.15 | 0.00 | 92 | 1017.8 |
| 20260507024049 | 6 | 355 | 0.0 | 1.6 | 0.00 | 0.15 | 0.00 | 92 | 1017.8 |
| 20260507023548 | 7 | 355 | 0.0 | 0.0 | 0.00 | 0.15 | 0.00 | 91 | 1017.7 |
| 20260507023103 | 7 | 355 | 0.0 | 0.0 | 0.00 | 0.15 | 0.00 | 91 | 1017.6 |
| 20260507022548 | 7 | 355 | 0.0 | 0.0 | 0.00 | 0.15 | 0.00 | 90 | 1017.6 |
| 20260507022049 | 7 | 355 | 0.0 | 0.0 | 0.00 | 0.15 | 0.00 | 90 | 1017.7 |
| 20260507021552 | 7 | 355 | 0.0 | 0.0 | 0.00 | 0.15 | 0.00 | 89 | 1017.6 |
| 20260507021049 | 8 | 355 | 0.0 | 0.0 | 0.00 | 0.15 | 0.00 | 89 | 1017.4 |
| 20260507020649 | 8 | 355 | 0.0 | 0.0 | 0.00 | 0.15 | 0.00 | 88 | 1017.4 |
| 20260507020047 | 8 | 355 | 0.0 | 0.0 | 0.00 | 0.15 | 0.00 | 88 | 1017.3 |
| 20260507015546 | 8 | 355 | 0.0 | 0.0 | 0.00 | 0.38 | 0.00 | 87 | 1017.1 |
| 20260507015047 | 8 | 355 | 0.0 | 0.0 | 0.00 | 0.38 | 0.00 | 87 | 1016.9 |
| 20260507014558 | 8 | 355 | 0.0 | 0.0 | 0.00 | 0.38 | 0.00 | 86 | 1016.9 |
| 20260507014047 | 8 | 355 | 0.0 | 0.0 | 0.00 | 0.38 | 0.00 | 85 | 1016.9 |
| 20260507013545 | 8 | 355 | 0.0 | 0.0 | 0.00 | 0.38 | 0.00 | 85 | 1017.0 |
| 20260507013103 | 9 | 355 | 0.0 | 0.0 | 0.00 | 0.38 | 0.00 | 84 | 1016.8 |
| 20260507012545 | 9 | 355 | 0.0 | 0.0 | 0.00 | 0.38 | 0.00 | 83 | 1016.9 |
| 20260507012045 | 9 | 355 | 0.0 | 0.0 | 0.00 | 0.38 | 0.00 | 82 | 1016.7 |
| 20260507011546 | 10 | 355 | 0.0 | 0.0 | 0.00 | 0.38 | 0.00 | 81 | 1016.6 |
| 20260507011045 | 10 | 355 | 0.0 | 0.0 | 0.00 | 0.38 | 0.00 | 79 | 1016.7 |
| 20260507010645 | 10 | 355 | 0.0 | 0.0 | 0.00 | 0.38 | 0.00 | 79 | 1016.8 |
| 20260507010044 | 10 | 355 | 0.0 | 1.6 | 0.00 | 0.38 | 0.00 | 75 | 1016.7 |
| 20260507005543 | 10 | 355 | 0.0 | 1.6 | 0.00 | 0.56 | 0.00 | 71 | 1016.8 |
| 20260507005044 | 11 | 355 | 0.0 | 3.2 | 0.00 | 0.56 | 0.00 | 69 | 1016.6 |
| 20260507004543 | 11 | 360 | 0.0 | 3.2 | 0.00 | 0.56 | 0.00 | 67 | 1016.4 |
| 20260507004044 | 11 | 341 | 0.0 | 3.2 | 0.00 | 0.56 | 0.00 | 65 | 1016.4 |
| 20260507003543 | 12 | 344 | 0.0 | 6.4 | 0.00 | 0.56 | 0.00 | 65 | 1016.4 |
| 20260507003042 | 12 | 355 | 1.6 | 6.4 | 0.00 | 0.56 | 0.00 | 63 | 1016.4 |
| 20260507002542 | 12 | 34 | 1.6 | 9.7 | 0.00 | 0.56 | 0.00 | 63 | 1016.4 |
| 20260507002042 | 12 | 348 | 4.8 | 9.7 | 0.00 | 0.56 | 0.00 | 61 | 1016.3 |
| 20260507001555 | 13 | 344 | 1.6 | 12.9 | 0.00 | 0.56 | 0.00 | 61 | 1016.1 |
| 20260507001045 | 13 | 331 | 3.2 | 12.9 | 0.00 | 0.56 | 0.00 | 57 | 1016.0 |
| 20260507000641 | 13 | 9 | 4.8 | 12.9 | 0.00 | 0.56 | 0.00 | 57 | 1016.0 |
| 20260507000042 | 13 | 351 | 3.2 | 16.1 | 0.00 | 0.56 | 0.00 | 58 | 1015.9 |
| 20260506235544 | 13 | 292 | 4.8 | 16.1 | 0.00 | 0.64 | 0.00 | 55 | 1015.7 |
| 20260506235041 | 13 | 355 | 3.2 | 19.3 | 0.00 | 0.64 | 0.00 | 58 | 1015.7 |
| 20260506234541 | 14 | 294 | 4.8 | 19.3 | 0.00 | 0.64 | 0.00 | 56 | 1015.7 |
| 20260506234043 | 14 | 9 | 6.4 | 19.3 | 0.00 | 0.64 | 0.00 | 57 | 1015.7 |
| 20260506233542 | 14 | 329 | 4.8 | 22.5 | 0.00 | 0.64 | 0.00 | 54 | 1015.7 |
| 20260506233045 | 14 | 338 | 4.8 | 22.5 | 0.00 | 0.64 | 0.00 | 53 | 1015.7 |
| 20260506232543 | 14 | 26 | 1.6 | 16.1 | 0.00 | 0.64 | 0.00 | 57 | 1015.6 |
| 20260506232039 | 14 | 5 | 3.2 | 16.1 | 0.00 | 0.64 | 0.00 | 58 | 1015.7 |
| 20260506231544 | 14 | 18 | 4.8 | 22.5 | 0.00 | 0.64 | 0.00 | 55 | 1015.7 |
| 20260506231039 | 14 | 15 | 6.4 | 22.5 | 0.00 | 0.64 | 0.00 | 54 | 1015.8 |
| 20260506230638 | 14 | 341 | 6.4 | 16.1 | 0.00 | 0.64 | 0.00 | 53 | 1016.0 |
| 20260506230051 | 15 | 300 | 8.0 | 16.1 | 0.00 | 0.64 | 0.00 | 54 | 1016.0 |
| 20260506225553 | 15 | 284 | 3.2 | 16.1 | 0.00 | 0.71 | 0.00 | 55 | 1016.0 |
| 20260506225051 | 15 | 19 | 6.4 | 22.5 | 0.00 | 0.71 | 0.00 | 54 | 1016.0 |
| 20260506224551 | 15 | 299 | 4.8 | 22.5 | 0.00 | 0.71 | 0.00 | 55 | 1015.9 |
| 20260506224051 | 15 | 11 | 8.0 | 17.7 | 0.00 | 0.71 | 0.00 | 54 | 1015.8 |
| 20260506223550 | 15 | 317 | 3.2 | 14.5 | 0.00 | 0.71 | 0.00 | 53 | 1015.8 |
| 20260506223104 | 15 | 302 | 6.4 | 16.1 | 0.00 | 0.71 | 0.00 | 53 | 1016.0 |
| 20260506222550 | 15 | 318 | 6.4 | 16.1 | 0.00 | 0.71 | 0.00 | 53 | 1016.0 |
| 20260506222052 | 15 | 5 | 3.2 | 14.5 | 0.00 | 0.71 | 0.00 | 53 | 1015.8 |
| 20260506221549 | 15 | 118 | 4.8 | 14.5 | 0.00 | 0.71 | 0.00 | 52 | 1016.0 |
| 20260506221049 | 15 | 355 | 6.4 | 14.5 | 0.00 | 0.71 | 0.00 | 55 | 1015.9 |
| 20260506220650 | 15 | 355 | 4.8 | 20.9 | 0.00 | 0.71 | 0.00 | 55 | 1015.9 |
| 20260506220051 | 15 | 346 | 6.4 | 20.9 | 0.00 | 0.71 | 0.00 | 54 | 1015.9 |
| 20260506215552 | 14 | 345 | 4.8 | 16.1 | 0.00 | 0.71 | 0.00 | 56 | 1015.8 |
| 20260506215051 | 15 | 348 | 4.8 | 14.5 | 0.00 | 0.71 | 0.00 | 54 | 1016.0 |
| 20260506214555 | 15 | 299 | 6.4 | 16.1 | 0.00 | 0.71 | 0.00 | 56 | 1016.0 |
| 20260506214052 | 14 | 292 | 4.8 | 19.3 | 0.00 | 0.71 | 0.00 | 59 | 1016.2 |
| 20260506213550 | 15 | 19 | 8.0 | 19.3 | 0.00 | 0.71 | 0.00 | 52 | 1016.3 |
| 20260506213049 | 15 | 339 | 4.8 | 12.9 | 0.00 | 0.71 | 0.00 | 56 | 1016.3 |
| 20260506212548 | 15 | 355 | 3.2 | 14.5 | 0.00 | 0.71 | 0.00 | 56 | 1016.4 |
| 20260506212049 | 15 | 341 | 3.2 | 19.3 | 0.00 | 0.71 | 0.00 | 59 | 1016.3 |
| 20260506211547 | 15 | 315 | 9.7 | 19.3 | 0.00 | 0.71 | 0.00 | 58 | 1016.4 |
| 20260506211047 | 15 | 326 | 4.8 | 17.7 | 0.00 | 0.71 | 0.00 | 57 | 1016.4 |